| time (UTC) | temp F | wind direction | speed MPH | gust MPH | rain 1hr in | rain 24hr in | rain mn in | humidity % | barometer mb |
| 20260904121527 | 58 | 45 | 2.0 | 0.0 | 0.00 | 0.00 | 0.18 | 96 | 1011.3 |
| 20260904120018 | 58 | 28 | 1.0 | 0.0 | 0.00 | 0.00 | 0.18 | 96 | 1011.1 |
| 20260904114518 | 58 | 9 | 2.0 | 0.0 | 0.00 | 0.00 | 0.18 | 96 | 1010.8 |
| 20260904113030 | 58 | 57 | 2.0 | 0.0 | 0.00 | 0.00 | 0.18 | 96 | 1010.9 |
| 20260904111523 | 58 | 59 | 1.0 | 0.0 | 0.00 | 0.00 | 0.18 | 96 | 1010.9 |
| 20260904110014 | 58 | 53 | 2.0 | 0.0 | 0.00 | 0.00 | 0.18 | 96 | 1010.7 |
| 20260904104514 | 58 | 14 | 2.0 | 0.0 | 0.00 | 0.00 | 0.18 | 95 | 1010.5 |
| 20260904103011 | 58 | 107 | 3.0 | 0.0 | 0.00 | 0.00 | 0.18 | 96 | 1010.6 |
| 20260904101511 | 58 | 81 | 2.0 | 0.0 | 0.00 | 0.00 | 0.18 | 96 | 1010.5 |
| 20260904100010 | 58 | 94 | 2.0 | 0.0 | 0.00 | 0.00 | 0.18 | 96 | 1010.5 |
| 20260904094510 | 58 | 70 | 2.0 | 0.0 | 0.00 | 0.00 | 0.18 | 96 | 1010.4 |
| 20260904093008 | 58 | 126 | 2.0 | 0.0 | 0.00 | 0.00 | 0.18 | 95 | 1010.1 |
| 20260904091508 | 58 | 14 | 2.0 | 0.0 | 0.00 | 0.00 | 0.18 | 96 | 1010.2 |
| 20260904090004 | 58 | 92 | 2.0 | 0.0 | 0.00 | 0.00 | 0.18 | 95 | 1010.7 |
| 20260904084503 | 58 | 69 | 2.0 | 0.0 | 0.00 | 0.00 | 0.18 | 95 | 1010.5 |
| 20260904083003 | 58 | 102 | 3.0 | 0.0 | 0.00 | 0.00 | 0.18 | 95 | 1010.3 |
| 20260904081557 | 57 | 19 | 3.0 | 0.0 | 0.00 | 0.00 | 0.18 | 95 | 1010.7 |
| 20260904080156 | 57 | 61 | 3.0 | 0.0 | 0.00 | 0.00 | 0.18 | 94 | 1010.7 |
| 20260904074554 | 57 | 42 | 2.0 | 0.0 | 0.00 | 0.00 | 0.07 | 94 | 1011.9 |
| 20260904073055 | 57 | 19 | 3.0 | 0.0 | 0.00 | 0.00 | 0.00 | 94 | 1011.6 |
| 20260904071549 | 57 | 53 | 3.0 | 0.0 | 0.00 | 0.00 | 0.00 | 94 | 1011.2 |
| 20260904070151 | 57 | 56 | 2.0 | 0.0 | 0.00 | 0.00 | 0.00 | 94 | 1011.8 |
| 20260904064557 | 57 | 130 | 2.0 | 0.0 | 0.00 | 0.00 | 0.00 | 94 | 1011.7 |
| 20260904063047 | 57 | 58 | 1.0 | 0.0 | 0.00 | 0.00 | 0.00 | 94 | 1011.8 |
| 20260904061538 | 57 | 48 | 2.0 | 0.0 | 0.00 | 0.00 | 0.00 | 94 | 1011.7 |
| 20260904060033 | 57 | 350 | 3.0 | 0.0 | 0.00 | 0.00 | 0.00 | 94 | 1011.5 |
| 20260904054535 | 57 | 360 | 2.0 | 0.0 | 0.00 | 0.00 | 0.46 | 93 | 1011.8 |
| 20260904053132 | 57 | 84 | 3.0 | 0.0 | 0.00 | 0.00 | 0.46 | 93 | 1012.0 |
| 20260904051534 | 57 | 47 | 1.0 | 0.0 | 0.00 | 0.00 | 0.46 | 93 | 1012.1 |
| 20260904050032 | 58 | 9 | 3.0 | 0.0 | 0.00 | 0.00 | 0.46 | 93 | 1011.8 |
| 20260904044541 | 58 | 343 | 2.0 | 0.0 | 0.00 | 0.00 | 0.46 | 93 | 1011.4 |
| 20260904043131 | 58 | 92 | 2.0 | 0.0 | 0.00 | 0.00 | 0.45 | 93 | 1012.0 |
| 20260904041536 | 58 | 41 | 2.0 | 0.0 | 0.00 | 0.00 | 0.42 | 93 | 1011.5 |
| 20260904040030 | 59 | 50 | 1.0 | 0.0 | 0.00 | 0.00 | 0.38 | 92 | 1012.5 |
| 20260904034531 | 60 | 19 | 2.0 | 0.0 | 0.00 | 0.00 | 0.36 | 91 | 1012.4 |
| 20260904033131 | 61 | 171 | 2.0 | 0.0 | 0.00 | 0.00 | 0.16 | 88 | 1014.9 |
| 20260904031541 | 61 | 293 | 4.0 | 0.0 | 0.00 | 0.00 | 0.04 | 85 | 1015.2 |
| 20260904030035 | 63 | 29 | 2.0 | 0.0 | 0.00 | 0.00 | 0.02 | 77 | 1012.0 |
| 20260904024534 | 63 | 181 | 2.0 | 0.0 | 0.00 | 0.00 | 0.00 | 76 | 1011.9 |
| 20260904023033 | 63 | 56 | 2.0 | 0.0 | 0.00 | 0.00 | 0.00 | 78 | 1012.2 |
| 20260904021502 | 64 | 38 | 3.0 | 0.0 | 0.00 | 0.00 | 0.00 | 79 | 1012.1 |
| 20260904020003 | 64 | 352 | 2.0 | 0.0 | 0.00 | 0.00 | 0.00 | 80 | 1012.0 |
| 20260904014626 | 64 | 79 | 2.0 | 0.0 | 0.00 | 0.00 | 0.00 | 79 | 1012.1 |
| 20260904013100 | 64 | 89 | 1.0 | 0.0 | 0.00 | 0.00 | 0.00 | 79 | 1012.4 |
| 20260904011608 | 64 | 60 | 1.0 | 0.0 | 0.00 | 0.00 | 0.00 | 79 | 1011.5 |
| 20260904010059 | 64 | 41 | 1.0 | 0.0 | 0.00 | 0.00 | 0.00 | 79 | 1011.3 |
| 20260904004530 | 64 | 5 | 2.0 | 0.0 | 0.00 | 0.00 | 0.00 | 79 | 1011.1 |
| 20260904003029 | 64 | 31 | 2.0 | 0.0 | 0.00 | 0.00 | 0.00 | 78 | 1011.2 |
| 20260904001558 | 65 | 51 | 2.0 | 0.0 | 0.00 | 0.00 | 0.00 | 77 | 1011.0 |
| 20260904000100 | 65 | 359 | 3.0 | 0.0 | 0.00 | 0.00 | 0.00 | 75 | 1011.2 |
| 20260903234554 | 66 | 60 | 2.0 | 0.0 | 0.00 | 0.00 | 0.00 | 76 | 1011.3 |
| 20260903233053 | 66 | 33 | 2.0 | 0.0 | 0.00 | 0.00 | 0.00 | 76 | 1011.5 |
| 20260903231603 | 66 | 31 | 2.0 | 0.0 | 0.00 | 0.00 | 0.00 | 75 | 1011.6 |
| 20260903230052 | 67 | 104 | 1.0 | 0.0 | 0.00 | 0.00 | 0.00 | 73 | 1011.7 |
| 20260903224549 | 68 | 62 | 1.0 | 0.0 | 0.00 | 0.00 | 0.00 | 73 | 1011.6 |
| 20260903223059 | 69 | 90 | 1.0 | 0.0 | 0.00 | 0.00 | 0.00 | 70 | 1011.2 |
| 20260903221548 | 69 | 95 | 1.0 | 0.0 | 0.00 | 0.00 | 0.00 | 71 | 1011.4 |
| 20260903214544 | 70 | 185 | 2.0 | 0.0 | 0.00 | 0.00 | 0.00 | 67 | 1011.4 |
| 20260903213044 | 70 | 160 | 3.0 | 0.0 | 0.00 | 0.00 | 0.00 | 67 | 1011.4 |
| 20260903211544 | 71 | 109 | 2.0 | 0.0 | 0.00 | 0.00 | 0.00 | 68 | 1011.2 |
| 20260903210043 | 70 | 99 | 2.0 | 0.0 | 0.00 | 0.00 | 0.00 | 68 | 1011.4 |
| 20260903204514 | 70 | 79 | 2.0 | 0.0 | 0.00 | 0.00 | 0.00 | 66 | 1011.5 |
| 20260903203022 | 70 | 153 | 3.0 | 0.0 | 0.00 | 0.00 | 0.00 | 66 | 1011.7 |
| 20260903201514 | 71 | 99 | 2.0 | 0.0 | 0.00 | 0.00 | 0.00 | 67 | 1011.5 |
| 20260903200026 | 71 | 114 | 4.0 | 0.0 | 0.00 | 0.00 | 0.00 | 68 | 1011.4 |
| 20260903194527 | 70 | 149 | 4.0 | 0.0 | 0.00 | 0.00 | 0.00 | 66 | 1011.2 |
| 20260903193108 | 71 | 150 | 4.0 | 0.0 | 0.00 | 0.00 | 0.00 | 64 | 1011.4 |
| 20260903191508 | 71 | 152 | 4.0 | 0.0 | 0.00 | 0.00 | 0.00 | 65 | 1011.4 |
| 20260903190005 | 72 | 144 | 4.0 | 0.0 | 0.00 | 0.00 | 0.00 | 63 | 1011.4 |
| 20260903184503 | 72 | 129 | 4.0 | 0.0 | 0.00 | 0.00 | 0.00 | 64 | 1011.4 |
| 20260903183003 | 73 | 140 | 4.0 | 0.0 | 0.00 | 0.00 | 0.00 | 61 | 1011.6 |
| 20260903181636 | 73 | 146 | 3.0 | 0.0 | 0.00 | 0.00 | 0.00 | 61 | 1011.5 |
| 20260903180059 | 73 | 119 | 4.0 | 0.0 | 0.00 | 0.00 | 0.00 | 63 | 1011.7 |
| 20260903174602 | 73 | 90 | 3.0 | 0.0 | 0.00 | 0.00 | 0.00 | 62 | 1011.7 |
| 20260903173107 | 73 | 131 | 1.0 | 0.0 | 0.00 | 0.00 | 0.00 | 62 | 1011.8 |
| 20260903171600 | 73 | 24 | 2.0 | 0.0 | 0.00 | 0.00 | 0.00 | 61 | 1011.9 |
| 20260903170053 | 72 | 137 | 1.0 | 0.0 | 0.00 | 0.00 | 0.00 | 62 | 1012.1 |
| 20260903164555 | 72 | 89 | 2.0 | 0.0 | 0.00 | 0.00 | 0.00 | 63 | 1012.3 |
| 20260903163048 | 71 | 82 | 2.0 | 0.0 | 0.00 | 0.00 | 0.00 | 64 | 1012.5 |
| 20260903161600 | 71 | 110 | 2.0 | 0.0 | 0.00 | 0.00 | 0.00 | 67 | 1012.7 |
| 20260903160042 | 70 | 94 | 2.0 | 0.0 | 0.00 | 0.00 | 0.00 | 66 | 1012.8 |
| 20260903154542 | 70 | 119 | 2.0 | 0.0 | 0.00 | 0.00 | 0.00 | 70 | 1012.7 |
| 20260903154539 | 70 | 120 | 2.0 | 0.0 | 0.00 | 0.00 | 0.00 | 70 | 1012.7 |
| 20260903153037 | 69 | 153 | 2.0 | 0.0 | 0.00 | 0.00 | 0.00 | 71 | 1012.7 |
| 20260903151541 | 69 | 46 | 1.0 | 0.0 | 0.00 | 0.00 | 0.00 | 72 | 1012.8 |
| 20260903150002 | 68 | 93 | 1.0 | 0.0 | 0.00 | 0.00 | 0.00 | 74 | 1012.8 |
| 20260903144600 | 67 | 54 | 2.0 | 0.0 | 0.00 | 0.00 | 0.00 | 77 | 1012.8 |
| 20260903143054 | 66 | 47 | 1.0 | 0.0 | 0.00 | 0.00 | 0.00 | 78 | 1012.8 |
| 20260903141551 | 65 | 104 | 1.0 | 0.0 | 0.00 | 0.00 | 0.00 | 81 | 1012.7 |
| 20260903140048 | 63 | 33 | 1.0 | 0.0 | 0.00 | 0.00 | 0.00 | 85 | 1012.8 |
| 20260903134554 | 62 | 78 | 1.0 | 0.0 | 0.00 | 0.00 | 0.00 | 89 | 1012.8 |
| 20260903133017 | 60 | 4 | 1.0 | 0.0 | 0.00 | 0.00 | 0.00 | 94 | 1012.7 |
| 20260903131509 | 59 | 300 | 0.0 | 0.0 | 0.00 | 0.00 | 0.00 | 96 | 1012.8 |
| 20260903130103 | 57 | 298 | 1.0 | 0.0 | 0.00 | 0.00 | 0.00 | 97 | 1012.6 |
| 20260903124602 | 56 | 289 | 0.0 | 0.0 | 0.00 | 0.00 | 0.00 | 97 | 1012.5 |
| 20260903123055 | 55 | 289 | 0.0 | 0.0 | 0.00 | 0.00 | 0.00 | 97 | 1012.6 |